TimeCST,TemperatureF,Dew PointF,Humidity,Sea Level PressureIn,VisibilityMPH,Wind Direction,Wind SpeedMPH,Gust SpeedMPH,PrecipitationIn,Events,Conditions,WindDirDegrees,DateUTC
3:15 AM,23.0,23.0,100,30.11,10.0,NW,17.3,24.2,N/A,,Overcast,320,2014-01-06 09:15:00
3:35 AM,23.0,23.0,100,30.11,10.0,NW,11.5,23.0,N/A,,Overcast,320,2014-01-06 09:35:00
3:55 AM,23.0,21.2,93,30.12,10.0,NNW,11.5,27.6,N/A,,Overcast,330,2014-01-06 09:55:00
4:15 AM,23.0,21.2,93,30.12,10.0,NW,19.6,27.6,N/A,Snow,Light Snow,310,2014-01-06 10:15:00
4:35 AM,23.0,21.2,93,30.14,10.0,NW,17.3,26.5,N/A,,Overcast,320,2014-01-06 10:35:00
4:55 AM,23.0,21.2,93,30.15,10.0,NW,12.7,21.9,N/A,,Overcast,320,2014-01-06 10:55:00
5:15 AM,23.0,21.2,93,30.16,10.0,NNW,12.7,18.4,N/A,Snow,Light Snow,330,2014-01-06 11:15:00
5:35 AM,21.2,19.4,93,30.17,10.0,NNW,10.4,21.9,N/A,,Overcast,330,2014-01-06 11:35:00
5:55 AM,21.2,19.4,93,30.18,10.0,NW,16.1,19.6,N/A,Snow,Light Snow,320,2014-01-06 11:55:00
6:15 AM,21.2,21.2,100,30.19,7.0,NW,10.4,17.3,N/A,Snow,Light Snow,310,2014-01-06 12:15:00
6:35 AM,21.2,19.4,93,30.19,7.0,NW,13.8,18.4,N/A,Snow,Light Snow,310,2014-01-06 12:35:00
6:55 AM,19.4,19.4,100,30.21,5.0,WNW,17.3,21.9,N/A,Snow,Light Snow,300,2014-01-06 12:55:00
7:15 AM,19.4,17.6,93,30.22,7.0,NW,13.8,21.9,N/A,Snow,Light Snow,310,2014-01-06 13:15:00
7:35 AM,17.6,14.0,86,30.23,7.0,NW,12.7,18.4,N/A,Snow,Light Snow,320,2014-01-06 13:35:00
7:55 AM,17.6,14.0,86,30.24,10.0,WNW,11.5,21.9,N/A,Snow,Light Snow,290,2014-01-06 13:55:00
8:15 AM,17.6,12.2,79,30.26,10.0,WNW,15.0,23.0,N/A,,Overcast,290,2014-01-06 14:15:00
8:35 AM,15.8,12.2,86,30.27,10.0,NW,11.5,-,N/A,,Overcast,310,2014-01-06 14:35:00
8:55 AM,15.8,10.4,79,30.29,10.0,NW,8.1,-,N/A,,Overcast,320,2014-01-06 14:55:00
9:15 AM,15.8,10.4,79,30.30,10.0,NNW,11.5,21.9,N/A,,Mostly Cloudy,330,2014-01-06 15:15:00
9:35 AM,17.6,10.4,73,30.31,10.0,NNW,12.7,21.9,N/A,,Scattered Clouds,330,2014-01-06 15:35:00
9:55 AM,-9999,-9999,N/A,30.31,10.0,NW,16.1,23.0,N/A,,Overcast,310,2014-01-06 15:55:00
10:15 AM,15.8,8.6,73,30.31,10.0,NW,15.0,20.7,N/A,,Mostly Cloudy,310,2014-01-06 16:15:00
10:35 AM,15.8,10.4,79,30.31,10.0,NNW,13.8,23.0,N/A,,Overcast,330,2014-01-06 16:35:00
10:55 AM,15.8,10.4,79,30.31,7.0,NW,15.0,23.0,N/A,,Overcast,320,2014-01-06 16:55:00
11:15 AM,14.0,10.4,86,30.31,7.0,NW,17.3,25.3,N/A,,Overcast,310,2014-01-06 17:15:00
11:35 AM,17.6,10.4,73,30.31,4.0,WNW,18.4,25.3,N/A,Snow,Light Snow,290,2014-01-06 17:35:00
11:55 AM,17.6,10.4,73,30.30,10.0,WNW,17.3,24.2,N/A,,Mostly Cloudy,300,2014-01-06 17:55:00
12:15 PM,-9999,-9999,N/A,30.30,10.0,WNW,15.0,26.5,N/A,,Scattered Clouds,300,2014-01-06 18:15:00
12:35 PM,-9999,-9999,N/A,30.29,10.0,NW,12.7,26.5,N/A,,Scattered Clouds,310,2014-01-06 18:35:00
12:55 PM,-9999,-9999,N/A,30.29,10.0,WNW,23.0,27.6,N/A,,Scattered Clouds,290,2014-01-06 18:55:00
1:15 PM,-9999,-9999,N/A,30.30,10.0,NW,17.3,24.2,N/A,,Scattered Clouds,320,2014-01-06 19:15:00
1:35 PM,-9999,-9999,N/A,30.29,10.0,WNW,12.7,21.9,N/A,,Scattered Clouds,300,2014-01-06 19:35:00
1:55 PM,-9999,-9999,N/A,30.30,10.0,NW,15.0,21.9,N/A,,Scattered Clouds,310,2014-01-06 19:55:00
2:15 PM,-9999,-9999,N/A,30.31,10.0,WNW,16.1,21.9,N/A,,Scattered Clouds,300,2014-01-06 20:15:00
2:35 PM,-9999,-9999,N/A,30.31,10.0,WNW,17.3,24.2,N/A,,Clear,290,2014-01-06 20:35:00
2:55 PM,-9999,-9999,N/A,30.32,10.0,NW,13.8,20.7,N/A,,Clear,320,2014-01-06 20:55:00
3:15 PM,-9999,-9999,N/A,30.33,10.0,WNW,15.0,24.2,N/A,,Clear,290,2014-01-06 21:15:00
3:35 PM,-9999,-9999,N/A,30.33,10.0,NW,13.8,21.9,N/A,,Clear,310,2014-01-06 21:35:00
3:55 PM,-9999,-9999,N/A,30.34,10.0,NW,12.7,18.4,N/A,,Clear,320,2014-01-06 21:55:00
4:15 PM,-9999,-9999,N/A,30.34,10.0,WNW,13.8,20.7,N/A,,Scattered Clouds,300,2014-01-06 22:15:00
4:35 PM,-9999,-9999,N/A,30.35,10.0,WNW,11.5,16.1,N/A,,Mostly Cloudy,300,2014-01-06 22:35:00
4:55 PM,-9999,-9999,N/A,30.37,10.0,NW,9.2,-,N/A,,Mostly Cloudy,310,2014-01-06 22:55:00
5:15 PM,-9999,-9999,N/A,30.37,10.0,WNW,11.5,19.6,N/A,,Overcast,300,2014-01-06 23:15:00
5:35 PM,-9999,-9999,N/A,30.38,10.0,NW,9.2,18.4,N/A,,Mostly Cloudy,320,2014-01-06 23:35:00
5:55 PM,-9999,-9999,N/A,30.38,10.0,WNW,9.2,-,N/A,,Scattered Clouds,300,2014-01-06 23:55:00
6:15 PM,-9999,-9999,N/A,30.38,10.0,WNW,12.7,17.3,N/A,,Scattered Clouds,290,2014-01-07 00:15:00
6:35 PM,-9999,-9999,N/A,30.38,10.0,WNW,6.9,-,N/A,,Scattered Clouds,300,2014-01-07 00:35:00
6:55 PM,-9999,-9999,N/A,30.38,10.0,WNW,11.5,-,N/A,,Scattered Clouds,300,2014-01-07 00:55:00
7:15 PM,-9999,-9999,N/A,30.39,10.0,NW,6.9,-,N/A,,Scattered Clouds,310,2014-01-07 01:15:00
7:35 PM,-9999,-9999,N/A,30.41,10.0,NW,10.4,-,N/A,,Scattered Clouds,310,2014-01-07 01:35:00
7:55 PM,-9999,-9999,N/A,30.41,10.0,NW,11.5,17.3,N/A,,Scattered Clouds,310,2014-01-07 01:55:00
8:15 PM,-9999,-9999,N/A,30.42,10.0,NW,10.4,-,N/A,,Scattered Clouds,310,2014-01-07 02:15:00
8:35 PM,-9999,-9999,N/A,30.43,10.0,NW,8.1,-,N/A,,Scattered Clouds,310,2014-01-07 02:35:00
8:55 PM,-9999,-9999,N/A,30.44,10.0,NW,8.1,-,N/A,,Scattered Clouds,310,2014-01-07 02:55:00
9:15 PM,12.2,3.2,67,30.44,10.0,NW,12.7,17.3,N/A,,Scattered Clouds,320,2014-01-07 03:15:00
9:35 PM,12.2,3.2,67,30.45,10.0,NW,10.4,18.4,N/A,,Scattered Clouds,320,2014-01-07 03:35:00
9:55 PM,10.4,3.2,73,30.44,10.0,NW,11.5,17.3,N/A,,Clear,320,2014-01-07 03:55:00
10:15 PM,10.4,3.2,73,30.45,10.0,NW,16.1,20.7,N/A,,Clear,320,2014-01-07 04:15:00
10:35 PM,10.4,3.2,73,30.46,10.0,NNW,15.0,21.9,N/A,,Clear,330,2014-01-07 04:35:00
10:55 PM,10.4,3.2,73,30.46,10.0,NW,15.0,20.7,N/A,,Clear,320,2014-01-07 04:55:00
11:15 PM,10.4,3.2,73,30.47,10.0,NW,10.4,19.6,N/A,,Scattered Clouds,320,2014-01-07 05:15:00
11:35 PM,10.4,3.2,73,30.48,10.0,NW,15.0,21.9,N/A,,Scattered Clouds,320,2014-01-07 05:35:00
11:55 PM,10.4,3.2,73,30.48,10.0,NNW,15.0,20.7,N/A,,Scattered Clouds,330,2014-01-07 05:55:00